Ames, IA

3:29 AM CDT on September 30, 2016 (GMT -0500)
Ames Municipal

Weather History for KAMW - November, 2011

Change the Weather History Date:

Friday, November 18, 2011

  Actual Average Record
Temperature  
Mean Temperature 44 °F 35 °F  
Max Temperature 56 °F 45 °F 75 °F (1999)
Min Temperature 32 °F 26 °F 5 °F (2014)
Degree Days  
Heating Degree Days 21 30  
Month to date heating degree days 433 457  
Since 1 July heating degree days 991 1053  
Cooling Degree Days 0 0  
Month to date cooling degree days 0 0  
Year to date cooling degree days 973 752  
Moisture  
Dew Point 28 °F    
Average Humidity 62    
Maximum Humidity 82    
Minimum Humidity 41    
Precipitation  
Precipitation 0.00 in 0.05 in 0.76 in (2004)
Month to date precipitation 2.97 1.51  
Year to date precipitation 29.15  
Sea Level Pressure  
Sea Level Pressure 29.78 in    
Wind  
Wind Speed 14 mph (South)    
Max Wind Speed 32 mph    
Max Gust Speed 39 mph    
Visibility 10 miles    
Events      
T = Trace of Precipitation, MM = Missing Value Source: NWS Daily Summary

Daily Weather History Graph

Daily Weather History Graph

Search for Another Location

Airport or City:

Trip Planner

Search our weather history database for the weather conditions in past years. The results will help you decide how hot, cold, wet, or windy it might be!

Date:

Astronomy

Nov. 18, 2011 Rise Set
Actual Time 7:07 AM CST 4:51 PM CST
Civil Twilight 6:37 AM CST 5:21 PM CST
Nautical Twilight 6:03 AM CST 5:55 PM CST
Astronomical Twilight 5:30 AM CST 6:28 PM CST
Moon No Moon Rise 12:44 PM CST (11/18)
Length of Visible Light 10h 43m
Length of Day
9h 43m
Waning Gibbous, 49% of the Moon is Illuminated
Nov 18
Waning Gibbous
Nov 25
New
Dec 2
First Quarter
Dec 10
Full
Dec 17
Last Quarter

Hourly Weather History & Observations

Time (CST) Temp. Windchill Dew Point Humidity Pressure Visibility Wind Dir Wind Speed Gust Speed Precip Events Conditions
12:53 AM 36.0 °F 27.1 °F 24.1 °F 62% 29.94 in 10.0 mi South 13.8 mph - N/A   Clear
1:53 AM 35.1 °F 25.9 °F 24.1 °F 64% 29.90 in 10.0 mi South 13.8 mph - N/A   Clear
2:53 AM 36.0 °F 26.3 °F 24.1 °F 62% 29.88 in 10.0 mi South 16.1 mph - N/A   Clear
3:53 AM 37.0 °F 28.5 °F 24.1 °F 59% 29.87 in 10.0 mi South 13.8 mph 21.9 mph N/A   Clear
5:53 AM 37.9 °F 28.5 °F 24.1 °F 57% 29.83 in 10.0 mi South 17.3 mph 23.0 mph N/A   Clear
6:53 AM 37.9 °F 29.2 °F 25.0 °F 60% 29.83 in 10.0 mi South 15.0 mph - N/A   Clear
7:53 AM 39.0 °F 29.9 °F 25.0 °F 57% 29.82 in 10.0 mi South 17.3 mph 25.3 mph N/A   Clear
8:53 AM 41.0 °F 32.5 °F 26.1 °F 55% 29.83 in 10.0 mi SSW 17.3 mph 24.2 mph N/A   Clear
9:53 AM 46.0 °F 37.8 °F 27.0 °F 47% 29.80 in 10.0 mi SSW 23.0 mph 32.2 mph N/A   Clear
10:53 AM 48.0 °F - 28.0 °F 46% 29.78 in 10.0 mi SSW 26.5 mph 34.5 mph N/A   Clear
12:53 PM 54.0 °F - 30.9 °F 41% 29.70 in 10.0 mi SSW 23.0 mph 35.7 mph N/A   Clear
1:53 PM 55.0 °F - 32.0 °F 42% 29.68 in 10.0 mi SSW 26.5 mph 36.8 mph N/A   Clear
2:53 PM 55.0 °F - 32.0 °F 42% 29.68 in 10.0 mi South 21.9 mph 31.1 mph N/A   Clear
4:53 PM 50.0 °F - 33.1 °F 52% 29.69 in 10.0 mi SSW 9.2 mph - N/A   Clear
6:53 PM 39.9 °F 35.8 °F 30.9 °F 70% 29.72 in 10.0 mi South 5.8 mph - N/A   Clear
7:53 PM 39.0 °F - 30.9 °F 73% 29.73 in 10.0 mi Calm Calm - N/A   Clear
8:53 PM 37.0 °F - 32.0 °F 82% 29.74 in 10.0 mi Calm Calm - N/A   Mostly Cloudy
9:53 PM 36.0 °F - 30.9 °F 82% 29.74 in 10.0 mi Calm Calm - N/A   Clear
10:53 PM 35.1 °F 31.0 °F 30.0 °F 82% 29.73 in 10.0 mi SSE 4.6 mph - N/A   Clear
11:53 PM 41.0 °F 36.4 °F 33.1 °F 73% 29.73 in 10.0 mi South 6.9 mph - N/A   Clear